Weather History for KMVY - January, 2013

Change the Weather History Date:

Friday, January 25, 2013

  Actual Average Record
Temperature  
Mean Temperature 18 °F -  
Max Temperature 25 °F 41 °F 65 °F (1967)
Min Temperature 12 °F 24 °F -1 °F (1961)
Degree Days  
Heating Degree Days 46    
Moisture  
Dew Point 6 °F    
Average Humidity 59    
Maximum Humidity 93    
Minimum Humidity 41    
Precipitation  
Precipitation 0.00 in - - ()
Sea Level Pressure  
Sea Level Pressure 30.18 in    
Wind  
Wind Speed 12 mph (NW)    
Max Wind Speed 21 mph    
Max Gust Speed 28 mph    
Visibility 8 miles    
Events Snow    
Averages and records for this station are not official NWS values.
T = Trace of Precipitation, MM = Missing Value Source: NWS Daily Summary

Daily Weather History Graph

Daily Weather History Graph

Search for Another Location

Airport or City:

Trip Planner

Search our weather history database for the weather conditions in past years. The results will help you decide how hot, cold, wet, or windy it might be!

Date:

Astronomy

Jan. 25, 2013 Rise Set
Actual Time 6:59 AM EST 4:50 PM EST
Civil Twilight 6:30 AM EST 5:19 PM EST
Nautical Twilight 5:56 AM EST 5:53 PM EST
Astronomical Twilight 5:23 AM EST 6:26 PM EST
Moon 3:44 PM EST (1/25) 5:37 AM EST (1/25)
Length of Visible Light 10h 49m
Length of Day
9h 50m
Waxing Gibbous, 98% of the Moon is Illuminated
Jan 25
Waxing Gibbous
Jan 26
Full
Feb 3
Last Quarter
Feb 10
New
Feb 17
First Quarter

Hourly Weather History & Observations

Time (EST) Temp. Windchill Dew Point Humidity Pressure Visibility Wind Dir Wind Speed Gust Speed Precip Events Conditions
12:53 AM 14.0 °F -2.5 °F -6.0 °F 41% 30.25 in 10.0 mi WNW 17.3 mph 26.5 mph N/A   Clear
1:53 AM 12.9 °F -5.3 °F -7.1 °F 41% 30.26 in 10.0 mi NW 20.7 mph 27.6 mph N/A   Clear
2:53 AM 12.0 °F -2.7 °F -6.0 °F 44% 30.28 in 10.0 mi NW 12.7 mph 20.7 mph N/A   Clear
3:53 AM 12.9 °F -2.2 °F -6.0 °F 43% 30.27 in 10.0 mi NW 13.8 mph 21.9 mph N/A   Clear
4:53 AM 12.9 °F -2.2 °F -6.0 °F 43% 30.28 in 10.0 mi WNW 13.8 mph 20.7 mph N/A   Clear
5:53 AM 12.0 °F -3.4 °F -4.0 °F 49% 30.29 in 10.0 mi NW 13.8 mph 24.2 mph N/A   Clear
6:53 AM 12.0 °F -2.0 °F -4.0 °F 49% 30.28 in 10.0 mi NW 11.5 mph 18.4 mph N/A   Clear
7:53 AM 14.0 °F 1.2 °F -2.0 °F 49% 30.30 in 10.0 mi WNW 10.4 mph 20.7 mph N/A   Clear
8:53 AM 16.0 °F 1.1 °F 1.0 °F 52% 30.31 in 10.0 mi WNW 15.0 mph 20.7 mph N/A   Clear
9:53 AM 18.0 °F 5.4 °F -0.9 °F 44% 30.32 in 10.0 mi West 11.5 mph 18.4 mph N/A   Clear
10:53 AM 19.0 °F 5.0 °F -0.0 °F 43% 30.29 in 10.0 mi NW 15.0 mph - N/A   Clear
11:53 AM 19.9 °F 8.6 °F -0.0 °F 42% 30.27 in 10.0 mi WNW 10.4 mph 16.1 mph N/A   Clear
12:53 PM 21.9 °F 12.5 °F 3.0 °F 44% 30.23 in 10.0 mi West 8.1 mph - N/A   Clear
1:53 PM 23.0 °F 13.9 °F 5.0 °F 46% 30.20 in 10.0 mi West 8.1 mph - N/A   Clear
2:53 PM 24.1 °F 14.4 °F 5.0 °F 44% 30.18 in 10.0 mi WNW 9.2 mph - N/A   Clear
3:53 PM 24.1 °F 18.2 °F 3.9 °F 42% 30.18 in 10.0 mi West 4.6 mph - N/A   Clear
4:53 PM 24.1 °F 19.7 °F 7.0 °F 48% 30.17 in 10.0 mi WSW 3.5 mph - N/A   Clear
5:53 PM 24.1 °F - 8.1 °F 51% 30.15 in 10.0 mi Calm Calm - N/A   Partly Cloudy
6:53 PM 24.1 °F 19.7 °F 10.0 °F 55% 30.15 in 10.0 mi West 3.5 mph - N/A   Mostly Cloudy
7:53 PM 25.0 °F - 10.9 °F 55% 30.13 in 10.0 mi Calm Calm - N/A   Overcast
8:53 PM 24.1 °F 19.7 °F 12.9 °F 62% 30.09 in 10.0 mi NNW 3.5 mph - N/A   Overcast
9:53 PM 23.0 °F 12.4 °F 15.1 °F 72% 30.08 in 3.0 mi NNW 10.4 mph - 0.00 in Snow Light Snow
9:58 PM 21.2 °F 10.1 °F 17.6 °F 86% 30.08 in 1.8 mi NNW 10.4 mph - 0.00 in Snow Light Snow
10:14 PM 21.2 °F 13.6 °F 19.4 °F 93% 30.07 in 2.5 mi NNW 5.8 mph - 0.00 in Snow Light Snow
10:22 PM 21.2 °F 14.9 °F 19.4 °F 93% 30.06 in 3.0 mi North 4.6 mph - 0.00 in Snow Light Snow
10:33 PM 21.2 °F 12.6 °F 19.4 °F 93% 30.06 in 4.0 mi North 6.9 mph - 0.00 in Snow Light Snow
10:53 PM 21.0 °F 13.4 °F 19.0 °F 92% 30.05 in 4.0 mi NNW 5.8 mph - 0.00 in Snow Light Snow
11:30 PM 21.2 °F 13.6 °F 17.6 °F 86% 30.04 in 2.5 mi North 5.8 mph - 0.00 in Snow Light Snow
11:46 PM 21.2 °F 13.6 °F 17.6 °F 86% 30.03 in 3.0 mi North 5.8 mph - 0.00 in Snow Light Snow
11:53 PM 21.0 °F 13.4 °F 18.0 °F 88% 30.03 in 3.0 mi North 5.8 mph - 0.00 in Snow Light Snow